Weather History for Hollywood, FL

Change the Weather History Date:

Friday, January 4, 2013

  Actual Average (KFLL) Record (KFLL)
Temperature  
Mean Temperature 73 °F 69 °F  
Max Temperature 80 °F 76 °F 86 °F (1925)
Min Temperature 66 °F 61 °F 32 °F (1918)
Degree Days  
Heating Degree Days 0 2  
Month to date heating degree days 8  
Since 1 July heating degree days 40  
Cooling Degree Days 8 6  
Month to date cooling degree days 24  
Year to date cooling degree days 24  
Growing Degree Days 23 (Base 50)    
Moisture  
Dew Point 68 °F    
Average Humidity 80    
Maximum Humidity 96    
Minimum Humidity 61    
Precipitation  
Precipitation 0.00 in 0.08 in 0.72 in (1987)
Month to date precipitation 0.34  
Year to date precipitation 0.34  
Snow  
Snow 0.00 in - - ()
Month to date snowfall  
Since 1 July snowfall  
Snow Depth -    
Sea Level Pressure  
Sea Level Pressure 30.19 in    
Wind  
Wind Speed 3 mph (NNE)    
Max Wind Speed 8 mph    
Max Gust Speed -    
Visibility 10 miles    
Events      
T = Trace of Precipitation, MM = Missing Value Source: NWS Daily Summary

Daily Weather History Graph

Daily Weather History Graph

Search for Another Location

Airport:

Trip Planner

Search our weather history database for the weather conditions in past years. The results will help you decide how hot, cold, wet, or windy it might be!

Date:

Astronomy

Jan. 04, 2013 Rise Set
Actual Time 7:08 AM EST 5:43 PM EST
Civil Twilight 6:43 AM EST 6:08 PM EST
Nautical Twilight 6:15 AM EST 6:37 PM EST
Astronomical Twilight 5:47 AM EST 7:05 PM EST
Moon No Moon Rise 11:35 AM EST (1/4)
Length of Visible Light 11h 24m
Length of Day
10h 34m
Waning Gibbous, 55% of the Moon is Illuminated
Jan 4
Waning Gibbous
Jan 4
Last Quarter
Jan 11
New
Jan 18
First Quarter
Jan 26
Full

Hourly Weather History & Observations

Time (EST) Temp. Heat Index Dew Point Humidity Pressure Visibility Wind Dir Wind Speed Gust Speed Precip Events Conditions
12:53 AM 68.0 °F - 64.9 °F 90% 30.14 in 10.0 mi Calm Calm - N/A   Clear
1:53 AM 66.9 °F - 64.0 °F 90% 30.14 in 10.0 mi Calm Calm - N/A   Clear
2:53 AM 66.0 °F - 64.0 °F 93% 30.13 in 10.0 mi Calm Calm - N/A   Clear
3:53 AM 66.0 °F - 64.0 °F 93% 30.13 in 10.0 mi Calm Calm - N/A   Clear
6:53 AM 68.0 °F - 66.0 °F 93% 30.17 in 10.0 mi Calm Calm - N/A   Clear
7:53 AM 68.0 °F - 66.9 °F 96% 30.19 in 10.0 mi Calm Calm - N/A   Clear
8:53 AM 73.0 °F - 69.1 °F 87% 30.22 in 10.0 mi North 3.5 mph - N/A   Clear
9:53 AM 77.0 °F - 70.0 °F 79% 30.22 in 10.0 mi SW 3.5 mph - N/A   Clear
10:23 AM 77.0 °F - 69.8 °F 78% 30.22 in 10.0 mi NW 5.8 mph - N/A   Mostly Cloudy
10:50 AM 78.8 °F - 71.6 °F 78% 30.22 in 10.0 mi NNW 3.5 mph - N/A   Mostly Cloudy
10:53 AM 79.0 °F - 71.1 °F 77% 30.22 in 10.0 mi Variable 3.5 mph - N/A   Mostly Cloudy
11:45 AM 80.6 °F 83.2 °F 68.0 °F 65% 30.20 in 10.0 mi North 8.1 mph - N/A   Mostly Cloudy
11:53 AM 80.1 °F 82.7 °F 68.0 °F 67% 30.20 in 10.0 mi NW 4.6 mph - N/A   Mostly Cloudy
12:01 PM 80.6 °F 83.2 °F 68.0 °F 65% 30.20 in 10.0 mi North 4.6 mph - N/A   Mostly Cloudy
12:53 PM 79.0 °F - 66.9 °F 66% 30.17 in 10.0 mi Calm Calm - N/A   Scattered Clouds
1:53 PM 80.1 °F 82.3 °F 66.9 °F 64% 30.15 in 10.0 mi NNE 4.6 mph - N/A   Mostly Cloudy
2:03 PM 80.6 °F 82.7 °F 66.2 °F 61% 30.15 in 10.0 mi NE 5.8 mph - N/A   Mostly Cloudy
2:53 PM 79.0 °F - 68.0 °F 69% 30.14 in 10.0 mi ESE 8.1 mph - 0.00 in   Mostly Cloudy
3:53 PM 78.1 °F - 68.0 °F 71% 30.15 in 10.0 mi ESE 6.9 mph - N/A   Overcast
4:10 PM 78.8 °F - 68.0 °F 69% 30.16 in 10.0 mi East 5.8 mph - N/A   Overcast
4:53 PM 77.0 °F - 68.0 °F 74% 30.17 in 10.0 mi East 8.1 mph - N/A   Overcast
5:53 PM 75.9 °F - 69.1 °F 79% 30.18 in 10.0 mi East 8.1 mph - N/A   Overcast
6:53 PM 75.0 °F - 70.0 °F 84% 30.21 in 10.0 mi ENE 5.8 mph - N/A   Overcast
7:53 PM 75.0 °F - 70.0 °F 84% 30.22 in 10.0 mi Calm Calm - N/A   Mostly Cloudy
8:53 PM 75.0 °F - 69.1 °F 82% 30.24 in 10.0 mi NE 4.6 mph - N/A   Overcast
9:39 PM 73.4 °F - 69.8 °F 88% 30.24 in 10.0 mi NNE 5.8 mph - N/A   Mostly Cloudy
9:53 PM 73.9 °F - 69.1 °F 85% 30.25 in 10.0 mi NE 5.8 mph - N/A   Mostly Cloudy
10:13 PM 73.4 °F - 69.8 °F 88% 30.24 in 10.0 mi NNE 5.8 mph - N/A   Scattered Clouds
10:53 PM 72.0 °F - 69.1 °F 91% 30.25 in 10.0 mi North 4.6 mph - N/A   Scattered Clouds
11:25 PM 71.6 °F - 69.8 °F 94% 30.24 in 10.0 mi North 6.9 mph - N/A   Mostly Cloudy
11:53 PM 71.1 °F - 68.0 °F 90% 30.24 in 10.0 mi North 6.9 mph - N/A   Scattered Clouds